{"data":{"norad_id":35752,"intl_designator":"2009-043A","name":"GPS BIIRM-8 (PRN 05)","alt_names":[],"object_type":"PAYLOAD","status":"ACTIVE","operator":null,"country":"US","launch_date":"2009-08-17","launch_site_code":"AFETR","launch_vehicle":null,"mission":null,"orbit_class":"UNKNOWN","rcs_meters":6.3,"size_class":null,"mass_kg":null,"dimensions":null,"purposes":["nav"],"wikipedia_slug":null,"has_3d_model":false,"image_url":null,"decayed_at":null,"tle_current":{"epoch":"2026-05-24T22:34:55.824096Z","epoch_age_seconds":86901,"freshness":"FRESH","line1":"1 35752U 09043A   26144.94092389 -.00000108  00000+0  00000+0 0  9997","line2":"2 35752  56.1962  28.3646 0053517  82.2594 100.2405  2.00555530122892","mean_motion":2.0055553,"eccentricity":0.0053517,"inclination_deg":56.1962,"raan_deg":28.3646,"arg_perigee_deg":82.2594,"mean_anomaly_deg":100.2405,"bstar":0,"rev_number":12289,"period_min":718.00563165723,"perigee_km":20040.776831882,"apogee_km":20325.070488553,"semimajor_km":26561.060660218,"source":"CELESTRAK","updated_at":"2026-05-25T13:38:23.730802Z"}}}